This demonstration page uses our WeatherBlox Daily Observations layout. Learn more.

Left ArrowRight Arrow

Hourly Observations for October 29, 2015

Temp ( °F °C ) Dew Point ( °F °C ) Humidity (%) Winds ( mph kmh ) Pressure ( in mb ) Visibility ( mi km ) Precip ( " mm )
12:35 am 00:35 Cloudy with Light Rain 57 13.9 50 10 78 78 W 9 15 29.65 1004 10 16 0.00 0.03
12:53 am 00:53 Cloudy with Light Rain 55 12.8 50 10 83 83 W 8 13 29.65 1004 9 14 0.01 0.25
1:02 am 01:02 Cloudy 55 12.8 49 9.4 80 80 W 10 17 29.65 1004 10 16 0.00 0.03
1:53 am 01:53 Cloudy 56 13.3 43 6.1 62 62 W 15 24 29.66 1005 10 16 0.00 0.03
2:53 am 02:53 Cloudy 49 9.4 37 2.8 64 64 W 6 9 29.72 1006 10 16 0.00 0.03
3:53 am 03:53 Clear 44 6.7 36 2.2 73 73 SW 3 6 29.72 1007 10 16 0.00 0.00
4:53 am 04:53 Clear 41 5 35 1.7 79 79 SSW 3 6 29.71 1006 10 16 0.00 0.00
5:53 am 05:53 Clear 38 3.3 34 1.1 86 86 Calm 29.73 1007 10 16 0.00 0.00
6:53 am 06:53 Mostly Cloudy 44 6.7 37 2.8 76 76 VRB 5 7 29.74 1007 10 16 0.00 0.00
7:53 am 07:53 Cloudy 47 8.3 37 2.8 69 69 SW 7 11 29.73 1007 10 16 0.00 0.00
8:53 am 08:53 Mostly Cloudy 50 10 36 2.2 59 59 WSW 12 19 29.74 1007 10 16 0.00 0.00
9:53 am 09:53 Mostly Sunny 50 10 39 3.9 66 66 WNW 13 20 29.77 1008 10 16 0.00 0.00
10:53 am 10:53 Sunny 51 10.6 37 2.8 59 59 W 15 24 29.79 1009 10 16 0.00 0.00
11:53 am 11:53 Sunny 53 11.7 33 0.6 47 47 W 12 19 29.80 1009 10 16 0.00 0.00
12:53 pm 12:53 Sunny 55 12.8 28 -2.2 35 35 W 13 20 29.81 1010 10 16 0.00 0.00
1:53 pm 13:53 Sunny 55 12.8 25 -3.9 31 31 W 17 28 29.80 1009 10 16 0.00 0.00
2:53 pm 14:53 Sunny 56 13.3 25 -3.9 30 30 W 14 22 29.82 1010 10 16 0.00 0.00
3:53 pm 15:53 Sunny 57 13.9 27 -2.8 32 32 W 14 22 29.83 1010 10 16 0.00 0.00
4:53 pm 16:53 Sunny 56 13.3 28 -2.2 34 34 W 12 19 29.85 1011 10 16 0.00 0.00
5:53 pm 17:53 Sunny 54 12.2 29 -1.7 38 38 W 9 15 29.87 1012 10 16 0.00 0.00
6:53 pm 18:53 Clear 48 8.9 32 0 54 54 NW 8 13 29.90 1013 10 16 0.00 0.00
7:53 pm 19:53 Mostly Cloudy 47 8.3 33 0.6 59 59 WNW 7 11 29.93 1013 10 16 0.00 0.00
8:53 pm 20:53 Cloudy 47 8.3 36 2.2 66 66 NW 15 24 29.96 1015 10 16 0.00 0.00
9:53 pm 21:53 Cloudy 46 7.8 35 1.7 66 66 NW 10 17 29.98 1015 10 16 0.00 0.00
10:53 pm 22:53 Cloudy 45 7.2 35 1.7 68 68 W 5 7 30.00 1016 10 16 0.00 0.00
11:53 pm 23:53 Cloudy 46 7.8 35 1.7 66 66 W 3 6 30.01 1016 10 16 0.00 0.00

Powered by AerisWeather